User: anonymous   Login
Location: Unspecified
(0.0000°N, 0.0000°E)
Time: 05:14:01
(UTC+00:00)
Language:

USA 112 - Orbit

View from above orbital plane
View from above orbital plane
View from above satellite
View from above satellite

Ground track
Ground track

The orbit data is extracted from the following two-line orbital elements,

1 23609U 95034A   18295.75519465 0.00000000  00000-0  00000-0 0    01
2 23609  63.0833  91.4104 7096003 266.3744  17.3552  2.00617000    00
Epoch (UTC): 22 October 2018 18:07:28
Eccentricity: 0.7096003
inclination: 63.0833°
perigee height: 1333 km
apogee height: 39021 km
right ascension of ascending node: 91.4104°
argument of perigee: 266.3744°
revolutions per day: 2.00617000
mean anomaly at epoch: 17.3552°
orbit number at epoch: 0

The dashed part of the orbit path shows where the satellite is in the earth's shadow,  

DLR